This demonstration page uses our WeatherBlox Daily Observations layout. Learn more.

Hourly Observations for October 12, 2018

Temp ( °F °C ) Dew Point ( °F °C ) Humidity (%) Winds ( mph kmh ) Pressure ( in mb ) Visibility ( mi km ) Precip ( " mm )
12:15 am 00:15 Cloudy 41 5.2 35 1.6 78 78 SW 5 7 30.12 1020 10 16.09344 0 0
12:35 am 00:35 Cloudy with Rain 41 5 36 2.1 82 82 SSW 7 11 30.12 1020 10 16.09344 0 0
12:55 am 00:55 Cloudy with Light Rain 39 4 35 1.8 86 86 SSW 8 13 30.12 1020 10 16.09344 0 0
1:15 am 01:15 Cloudy 39 3.8 36 2.3 90 90 SSW 8 13 30.12 1020 10 16.09344 0 0
1:35 am 01:35 Cloudy 38 3.5 37 2.5 93 93 S 5 7 30.09 1019 10 16.09344 0 0
1:55 am 01:55 Cloudy 38 3.3 37 2.5 95 95 SSE 8 13 30.09 1019 10 16.09344 0 0
2:15 am 02:15 Cloudy 38 3.5 37 2.6 94 94 Calm 30.09 1019 10 16.09344 0 0
2:35 am 02:35 Cloudy 38 3.4 37 2.5 94 94 Calm 30.09 1019 10 16.09344 0 0
2:55 am 02:55 Cloudy 38 3.5 37 2.5 93 93 Calm 30.09 1019 10 16.09344 0 0
3:15 am 03:15 Cloudy 37 3 36 2.4 96 96 Calm 30.09 1019 10 16.09344 0 0
3:35 am 03:35 Cloudy 38 3.5 37 2.7 95 95 Calm 30.09 1019 10 16.09344 0 0
3:55 am 03:55 Cloudy 38 3.3 37 2.6 95 95 Calm 30.09 1019 10 16.09344 0 0
4:15 am 04:15 Cloudy 38 3.5 37 2.6 94 94 Calm 30.09 1019 10 16.09344 0 0
4:35 am 04:35 Cloudy 38 3.5 37 2.6 94 94 N 3 6 30.09 1019 10 16.09344 0 0
4:55 am 04:55 Cloudy 38 3.5 37 3 97 97 N 3 6 30.09 1019 10 16.09344 0 0
5:15 am 05:15 Cloudy 38 3.5 38 3.1 97 97 Calm 30.09 1019 10 16.09344 0 0
5:35 am 05:35 Cloudy 38 3.5 38 3.1 97 97 Calm 30.09 1019 10 16.09344 0 0
5:55 am 05:55 Cloudy with Light Rain 38 3.5 37 3 97 97 Calm 30.09 1019 10 16.09344 0 0
6:15 am 06:15 Cloudy 38 3.4 37 3 97 97 Calm 30.09 1019 7 11.265408 0 0
6:35 am 06:35 Cloudy with Light Rain 38 3.4 37 2.9 97 97 Calm 30.09 1019 5 8.04672 0 0
6:55 am 06:55 Cloudy with Mist and Fog 38 3.2 38 3.1 99 99 SSE 3 6 30.06 1018 5 8.04672 0 0
7:15 am 07:15 Cloudy 38 3.2 38 3.2 100 100 ESE 9 15 30.03 1017 10 16.09344 0 0
7:35 am 07:35 Cloudy 38 3.1 38 3.1 100 100 SE 5 7 30.03 1017 10 16.09344 0 0
7:55 am 07:55 Cloudy 38 3.1 38 3.1 100 100 S 3 6 30.06 1018 10 16.09344 0 0
8:15 am 08:15 Cloudy 38 3.1 38 3.1 100 100 S 5 7 30.06 1018 10 16.09344 0 0
8:35 am 08:35 Cloudy 38 3.2 38 3.2 100 100 S 5 7 30.06 1018 10 16.09344 0 0
8:55 am 08:55 Cloudy 38 3.5 38 3.5 100 100 SW 3 6 30.06 1018 10 16.09344 0 0
9:15 am 09:15 Cloudy 39 3.8 39 3.8 100 100 WSW 3 6 30.09 1019 10 16.09344 0 0
9:35 am 09:35 Cloudy 39 4 39 4 100 100 WSW 6 9 30.09 1019 10 16.09344 0 0
9:55 am 09:55 Cloudy 40 4.5 40 4.3 99 99 SW 6 9 30.09 1019 10 16.09344 0 0
10:15 am 10:15 Cloudy 40 4.6 40 4.4 99 99 WSW 6 9 30.06 1018 10 16.09344 0 0
10:35 am 10:35 Cloudy with Rain 41 4.9 40 4.6 98 98 W 6 9 30.09 1019 7 11.265408 0 0
10:55 am 10:55 Cloudy 41 5.2 41 5 99 99 W 7 11 30.09 1019 10 16.09344 0 0
11:15 am 11:15 Cloudy 43 6 42 5.5 97 97 W 8 13 30.09 1019 10 16.09344 0 0
11:35 am 11:35 Cloudy 44 6.5 42 5.6 94 94 WNW 8 13 30.03 1017 10 16.09344 0 0
11:55 am 11:55 Cloudy 45 7.3 42 5.6 89 89 WNW 10 17 30.03 1017 10 16.09344 0 0
12:15 pm 12:15 Cloudy 45 7.2 42 5.5 89 89 NW 9 15 30.03 1017 10 16.09344 0 0
12:35 pm 12:35 Cloudy 45 7.4 41 5.2 86 86 NW 9 15 30.03 1017 10 16.09344 0 0
12:55 pm 12:55 Cloudy 46 7.7 41 5.1 84 84 WNW 10 17 30.03 1017 10 16.09344 0 0
1:15 pm 13:15 Cloudy 48 8.7 41 5.2 79 79 NW 13 20 30.03 1017 10 16.09344 0 0
1:35 pm 13:35 Cloudy 47 8.1 41 5 81 81 WNW 10 17 30.03 1017 10 16.09344 0 0
1:55 pm 13:55 Cloudy 48 8.7 41 5 78 78 W 9 15 30.03 1017 10 16.09344 0 0
2:15 pm 14:15 Cloudy 50 9.8 41 5.2 73 73 NW 10 17 29.97 1015 10 16.09344 0 0
2:35 pm 14:35 Cloudy 50 10 38 3.5 64 64 NNW 14 22 29.97 1015 10 16.09344 0 0
2:55 pm 14:55 Partly Cloudy 52 11 38 3.4 60 60 NW 9 15 29.97 1015 10 16.09344 0 0
3:15 pm 15:15 Mostly Cloudy 54 12.4 37 2.8 52 52 N 12 19 29.91 1013 10 16.09344 0 0
3:35 pm 15:35 Partly Cloudy 53 11.9 35 1.4 49 49 NNW 10 17 29.94 1014 10 16.09344 0 0
3:55 pm 15:55 Partly Cloudy 53 11.8 35 1.9 51 51 NW 9 15 29.94 1014 10 16.09344 0 0
4:15 pm 16:15 Partly Cloudy 55 12.5 35 1.8 48 48 N 10 17 29.91 1013 10 16.09344 0 0
4:35 pm 16:35 Partly Cloudy 54 12.4 33 0.4 44 44 NW 14 22 29.91 1013 10 16.09344 0 0
4:55 pm 16:55 Sunny 54 12.2 32 0 43 43 NNW 10 17 29.91 1013 10 16.09344 0 0
5:15 pm 17:15 Sunny 54 12.2 33 0.3 44 44 NNW 7 11 29.91 1013 10 16.09344 0 0
5:35 pm 17:35 Sunny 54 12.2 31 -0.3 42 42 N 6 9 29.91 1013 10 16.09344 0 0
5:55 pm 17:55 Sunny 54 12 31 -0.3 43 43 NW 3 6 29.91 1013 10 16.09344 0 0
6:15 pm 18:15 Sunny 53 11.6 32 -0.2 44 44 N 3 6 29.94 1014 10 16.09344 0 0
6:35 pm 18:35 Sunny 52 11.2 31 -0.5 45 45 Calm 29.94 1014 10 16.09344 0 0
6:55 pm 18:55 Sunny 50 9.9 33 0.8 53 53 Calm 29.94 1014 10 16.09344 0 0
7:15 pm 19:15 Clear 47 8.5 33 0.8 59 59 Calm 29.97 1015 7 11.265408 0 0
7:35 pm 19:35 Clear 46 7.7 32 0.2 59 59 Calm 29.97 1015 10 16.09344 0 0
7:55 pm 19:55 Clear 42 5.5 32 0.1 69 69 ESE 5 7 29.97 1015 10 16.09344 0 0
8:15 pm 20:15 Clear 42 5.6 33 0.3 69 69 SE 6 9 29.97 1015 10 16.09344 0 0
8:35 pm 20:35 Clear 41 4.9 32 0 71 71 SE 5 7 29.97 1015 10 16.09344 0 0
8:55 pm 20:55 Clear 40 4.5 32 -0.1 72 72 SSE 5 7 29.97 1015 10 16.09344 0 0
9:15 pm 21:15 Clear 40 4.3 32 -0.2 73 73 SSE 3 6 29.97 1015 10 16.09344 0 0
9:35 pm 21:35 Clear 39 4.1 32 -0.2 74 74 S 7 11 29.97 1015 10 16.09344 0 0
9:55 pm 21:55 Clear 38 3.1 31 -0.3 79 79 S 6 9 29.97 1015 10 16.09344 0 0
10:15 pm 22:15 Clear 38 3.5 32 0 78 78 SSE 5 7 29.97 1015 10 16.09344 0 0
10:35 pm 22:35 Clear 38 3.4 32 0 79 79 S 6 9 29.97 1015 10 16.09344 0 0
10:55 pm 22:55 Clear 38 3.2 32 0 80 80 S 5 7 29.97 1015 10 16.09344 0 0
11:15 pm 23:15 Clear 37 3 32 0.2 82 82 S 7 11 29.97 1015 10 16.09344 0 0
11:35 pm 23:35 Clear 38 3.3 33 0.6 83 83 S 7 11 29.97 1015 10 16.09344 0 0
11:55 pm 23:55 Clear 39 3.7 34 1 83 83 S 7 11 29.97 1015 10 16.09344 0 0

Powered by AerisWeather